Home   Weather   Fairfield   Past weeks
Flag for Ireland

Past Weather in Fairfield, Ireland — Yesterday and Last 2 Weeks

Now
43 °F

Quite cool.


Feels Like: 41 °F
Forecast: 56 / 47 °F
Wind: 3 mph from South

Location: Mullingar

Current Time: Apr 4, 2020 at 8:09:27 am

Latest Report: Apr 4, 2020 at 7:00 am


Visibility: 19 mi

Pressure: 29.95 "Hg

Humidity: 86%

Dew Point: 39 °F

Location of FairfieldLocation

Past Weather in Fairfield — Graph

°F

Fairfield Temperature Yesterday

Maximum temperature yesterday: 53 °F (at 5:00 pm)
Minimum temperature yesterday: 40 °F (at 2:00 am)
Average temperature yesterday: 47 °F

High & Low Weather Summary for the Past Weeks

 TemperatureHumidityPressure
High58 °F (Mar 25, 3:00 pm)98% (Mar 26, 6:00 am)30.96 "Hg (Mar 26, 6:00 am)
Low30 °F (Mar 20, 6:00 am)45% (Mar 29, 3:00 pm)29.95 "Hg (Apr 4, 6:00 am)
Average45 °F75%30.35 "Hg
* Reported Mar 20 5:00 am — Apr 4 6:00 am, Fairfield. Weather by CustomWeather, © 2020

Note: Actual official high and low records may vary slightly from our data, if they occured in-between our weather recording intervals... More about our weather records

Fairfield Weather History for the Previous 24 Hours

Scroll right to see more
 ConditionsComfort  
Time TempWeatherWind HumidityBarometerVisibility
6:00 am
Sat, Apr 4
44 °FQuite cool.3 mph87%29.95 "Hg22 mi
5:00 am44 °FQuite cool.3 mph87%29.96 "Hg28 mi
4:00 am43 °FQuite cool.1 mph89%29.97 "Hg31 mi
3:00 am44 °FQuite cool.2 mph89%29.98 "Hg31 mi
2:00 am43 °FQuite cool.1 mph90%30.00 "Hg22 mi
1:00 am44 °FQuite cool.2 mph88%30.00 "Hg31 mi
12:00 am44 °FQuite cool.2 mph85%30.00 "Hg22 mi
11:00 pm
Fri, Apr 3
45 °FCool.2 mph80%30.00 "Hg31 mi
10:00 pm45 °FCool.2 mph78%30.00 "Hg31 mi
9:00 pm46 °FCool.2 mph76%30.01 "Hg31 mi
8:00 pm48 °FCool.2 mph72%29.99 "Hg31 mi
7:00 pm49 °FCool.3 mph69%29.99 "Hg31 mi
6:00 pm50 °FCool.3 mph73%29.99 "Hg28 mi
5:00 pm53 °FCool.5 mph57%29.99 "Hg28 mi
4:00 pm51 °FCool.5 mph66%29.99 "Hg25 mi
3:00 pm51 °FCool.6 mph74%30.00 "Hg28 mi
2:00 pm51 °FCool.2 mph73%30.00 "Hg25 mi
1:00 pm51 °FCool.5 mph74%30.01 "Hg22 mi
12:00 pm50 °FCool.5 mph76%30.03 "Hg19 mi
11:00 am49 °FCool.5 mph74%30.03 "Hg22 mi
10:00 am47 °FCool.3 mph79%30.03 "Hg19 mi
9:00 am45 °FQuite cool.2 mph87%30.03 "Hg16 mi
8:00 am41 °FQuite cool.2 mph91%30.03 "Hg15 mi
Weather by CustomWeather, © 2020

See weather overview

Advertising